Date String (YYYY-MM-DD hh:mm:ss) UTC,Instrument flags,absolute air pressure of the measurement (hPa),sample flow rate (lpm),inlet stack bypass flow (lpm),air temperature of the measurement (°C),ambient temperature measured by the external sensor (°C),aerosol sample conditioner tube jacket temperature (°C),OPC LED temperature (°C),internal box temperature (°C),relative humidity of the measurement (%),span deviation,mass concentration of particles derived from Lorenz-Mie calculation of OPC scattering (μg/m³),mass concentration of particles derived from Lorenz-Mie calculation of OPC scattering (μg/m³),mass concentration of particles derived from Lorenz-Mie calculation of OPC scattering (μg/m³)
DateTimeUTC,F1_M11,P_M11,Q1_M11,Q2_M11,T1_M11,T2_M11,T3_M11,T4_M11,T5_M11,U1_M11,ZSPAN_M11,X0_M11,X2_M11,X1_M11
2024-04-10 17:00:00,SystemResetWarning,0831.1,5.01,000.00,025.4,024.7,000.0,033.8,027.2,013.4,0000.0,0016.06,0004.17,0002.61
2024-04-10 17:01:00,SystemResetWarning,0831.1,4.98,000.00,025.4,024.6,000.0,033.8,027.2,013.0,0000.0,0016.05,0004.15,0002.58
2024-04-10 17:02:00,SystemResetWarning,0831.1,4.99,000.00,025.4,024.6,000.0,033.8,027.2,012.7,0000.0,0014.56,0004.12,0002.57
2024-04-10 17:03:00,SystemResetWarning,0831.1,5.01,000.00,025.4,024.6,000.0,033.9,027.2,013.5,0000.0,0014.44,0004.13,0002.57
2024-04-10 17:04:00,SystemResetWarning,0831.1,5.01,000.00,025.4,024.6,000.0,033.9,027.2,013.1,0000.0,0014.33,0004.16,0002.56
2024-04-10 17:05:00,SystemResetWarning,0831.1,5.01,000.00,025.4,024.6,000.0,033.9,027.2,013.3,0000.0,0013.14,0004.13,0002.53
2024-04-10 17:06:00,SystemResetWarning,0831.0,5.00,000.00,025.4,024.6,000.0,033.9,027.2,013.2,0000.0,0012.97,0004.11,0002.48
2024-04-10 17:07:00,SystemResetWarning,0831.0,5.00,000.00,025.4,024.6,000.0,033.8,027.2,012.6,0000.0,0013.48,0004.08,0002.43
2024-04-10 17:08:00,SystemResetWarning,0831.0,4.99,000.00,025.4,024.6,000.0,033.8,027.2,012.7,0000.0,0013.34,0003.99,0002.37
2024-04-10 17:09:00,SystemResetWarning,0831.0,5.00,000.00,025.4,024.6,000.0,033.8,027.2,012.2,0000.0,0013.00,0003.90,0002.30
2024-04-10 17:10:00,SystemResetWarning,0831.0,5.00,000.00,025.4,024.6,000.0,033.8,027.2,012.3,0000.0,0014.17,0003.85,0002.24
2024-04-10 17:11:00,SystemResetWarning,0830.9,5.00,000.00,025.4,024.6,000.0,033.8,027.2,012.3,0000.0,0014.83,0003.77,0002.16
2024-04-10 17:12:00,SystemResetWarning,0830.9,5.01,000.00,025.4,024.6,000.0,033.8,027.2,012.2,0000.0,0014.63,0003.72,0002.11
2024-04-10 17:13:00,SystemResetWarning,0830.9,5.01,000.00,025.4,024.6,000.0,033.8,027.2,012.2,0000.0,0014.68,0003.72,0002.08
2024-04-10 17:14:00,SystemResetWarning,0830.9,4.99,000.00,025.4,024.6,000.0,033.9,027.2,012.3,0000.0,0014.37,0003.72,0002.04
2024-04-10 17:15:00,SystemResetWarning,0830.9,4.99,000.00,025.4,024.6,000.0,033.8,027.2,012.6,0000.0,0014.91,0003.62,0001.98
2024-04-10 17:16:00,SystemResetWarning,0830.9,5.00,000.00,025.4,024.7,000.0,033.9,027.2,012.4,0000.0,0016.38,0003.64,0001.95
2024-04-10 17:17:00,SystemResetWarning,0830.9,5.02,000.00,025.4,024.7,000.0,033.9,027.2,012.1,0000.0,0017.13,0003.60,0001.92
2024-04-10 17:18:00,SystemResetWarning,0830.9,5.00,000.00,025.4,024.6,000.0,033.9,027.2,012.0,0000.0,0016.54,0003.60,0001.89
2024-04-10 17:19:00,SystemResetWarning,0830.9,4.99,000.00,025.4,024.7,000.0,033.8,027.2,011.8,0000.0,0015.46,0003.65,0001.87
2024-04-10 17:20:00,SystemResetWarning,0830.9,4.99,000.00,025.4,024.7,000.0,033.8,027.2,012.0,0000.0,0015.38,0003.63,0001.86
2024-04-10 17:21:00,SystemResetWarning,0830.9,5.01,000.00,025.4,024.7,000.0,033.9,027.2,012.2,0000.0,0013.64,0003.63,0001.85
2024-04-10 17:22:00,SystemResetWarning,0830.9,5.01,000.00,025.4,024.7,000.0,033.9,027.2,011.7,0000.0,0012.76,0003.66,0001.83
2024-04-10 17:23:00,SystemResetWarning,0830.9,5.01,000.00,025.4,024.7,000.0,033.9,027.2,011.6,0000.0,0013.09,0003.68,0001.84
2024-04-10 17:24:00,SystemResetWarning,0830.9,5.00,000.00,025.4,024.7,000.0,033.9,027.3,011.7,0000.0,0013.36,0003.61,0001.82
2024-04-10 17:25:00,SystemResetWarning,0830.9,5.00,000.00,025.4,024.7,000.0,033.9,027.3,011.8,0000.0,0013.42,0003.55,0001.80
2024-04-10 17:26:00,SystemResetWarning,0830.9,5.00,000.00,025.4,024.7,000.0,033.9,027.3,011.9,0000.0,0012.33,0003.57,0001.80
2024-04-10 17:27:00,SystemResetWarning,0830.9,5.01,000.00,025.4,024.7,000.0,033.9,027.3,012.0,0000.0,0010.91,0003.52,0001.80
2024-04-10 17:28:00,SystemResetWarning,0830.9,4.98,000.00,025.4,024.7,000.0,033.9,027.2,011.8,0000.0,0009.87,0003.47,0001.79
2024-04-10 17:29:00,SystemResetWarning,0830.9,5.00,000.00,025.4,024.7,000.0,033.9,027.3,011.9,0000.0,0009.67,0003.41,0001.78
2024-04-10 17:30:00,SystemResetWarning,0830.9,5.01,000.00,025.4,024.7,000.0,033.9,027.3,011.9,0000.0,0010.31,0003.36,0001.77
2024-04-10 17:31:00,SystemResetWarning,0830.9,5.01,000.00,025.4,024.7,000.0,033.9,027.3,011.8,0000.0,0009.88,0003.40,0001.78
2024-04-10 17:32:00,SystemResetWarning,0830.9,5.00,000.00,025.4,024.7,000.0,033.9,027.3,011.9,0000.0,0010.22,0003.42,0001.80
2024-04-10 17:33:00,SystemResetWarning,0830.9,5.00,000.00,025.5,024.7,000.0,033.9,027.3,012.2,0000.0,0010.48,0003.39,0001.81
2024-04-10 17:34:00,SystemResetWarning,0830.9,4.99,000.00,025.5,024.7,000.0,033.9,027.3,011.9,0000.0,0010.26,0003.39,0001.80
2024-04-10 17:35:00,SystemResetWarning,0830.8,4.99,000.00,025.5,024.7,000.0,033.9,027.3,011.9,0000.0,0010.26,0003.42,0001.82
2024-04-10 17:36:00,SystemResetWarning,0830.8,5.01,000.00,025.5,024.8,000.0,033.9,027.3,012.2,0000.0,0010.06,0003.43,0001.83
2024-04-10 17:37:00,SystemResetWarning,0830.8,5.01,000.00,025.5,024.8,000.0,033.9,027.3,012.0,0000.0,0010.01,0003.44,0001.85
2024-04-10 17:38:00,SystemResetWarning,0830.9,5.00,000.00,025.5,024.8,000.0,033.9,027.3,011.9,0000.0,0010.15,0003.44,0001.84
2024-04-10 17:39:00,SystemResetWarning,0830.8,5.00,000.00,025.5,024.7,000.0,033.9,027.3,012.2,0000.0,0010.36,0003.45,0001.84
2024-04-10 17:40:00,SystemResetWarning,0830.8,4.99,000.00,025.5,024.8,000.0,033.9,027.3,012.1,0000.0,0010.53,0003.44,0001.86
2024-04-10 17:41:00,SystemResetWarning,0830.8,5.00,000.00,025.5,024.8,000.0,033.9,027.3,012.0,0000.0,0009.95,0003.43,0001.86
2024-04-10 17:42:00,SystemResetWarning,0830.8,5.00,000.00,025.5,024.7,000.0,033.9,027.3,011.9,0000.0,0009.98,0003.42,0001.86
2024-04-10 17:43:00,SystemResetWarning,0830.7,5.01,000.00,025.5,024.7,000.0,033.9,027.3,012.0,0000.0,0009.93,0003.40,0001.84
2024-04-10 17:44:00,SystemResetWarning,0830.8,5.00,000.00,025.5,024.7,000.0,033.9,027.3,011.4,0000.0,0009.77,0003.46,0001.85
2024-04-10 17:45:00,SystemResetWarning,0830.8,5.00,000.00,025.5,024.7,000.0,033.9,027.3,011.7,0000.0,0009.87,0003.48,0001.86
2024-04-10 17:46:00,SystemResetWarning,0830.9,5.00,000.00,025.5,024.8,000.0,033.9,027.4,011.5,0000.0,0009.42,0003.49,0001.86
2024-04-10 17:47:00,SystemResetWarning,0830.9,4.99,000.00,025.5,024.8,000.0,034.0,027.4,011.6,0000.0,0009.43,0003.51,0001.85
2024-04-10 17:48:00,SystemResetWarning,0830.8,4.99,000.00,025.5,024.8,000.0,034.0,027.4,011.7,0000.0,0009.64,0003.47,0001.83
2024-04-10 17:49:00,SystemResetWarning,0830.8,5.00,000.00,025.5,024.8,000.0,034.0,027.4,011.5,0000.0,0009.52,0003.48,0001.85
2024-04-10 17:50:00,SystemResetWarning,0830.8,5.00,000.00,025.6,024.9,000.0,034.0,027.4,011.9,0000.0,0009.66,0003.52,0001.87
2024-04-10 17:51:00,SystemResetWarning,0830.8,5.01,000.00,025.6,024.9,000.0,034.0,027.4,011.7,0000.0,0010.15,0003.59,0001.88
2024-04-10 17:52:00,SystemResetWarning,0830.7,5.01,000.00,025.6,024.9,000.0,034.0,027.4,011.8,0000.0,0009.96,0003.59,0001.88
2024-04-10 17:53:00,SystemResetWarning,0830.8,5.00,000.00,025.6,024.9,000.0,034.0,027.4,011.5,0000.0,0009.88,0003.61,0001.89
2024-04-10 17:54:00,SystemResetWarning,0830.8,5.01,000.00,025.6,024.9,000.0,034.0,027.4,011.1,0000.0,0009.79,0003.58,0001.92
2024-04-10 17:55:00,SystemResetWarning,0830.9,5.00,000.00,025.6,024.9,000.0,034.0,027.4,011.1,0000.0,0009.91,0003.57,0001.93
2024-04-10 17:56:00,SystemResetWarning,0830.8,5.00,000.00,025.6,024.9,000.0,034.0,027.4,011.1,0000.0,0009.83,0003.57,0001.94
2024-04-10 17:57:00,SystemResetWarning,0830.7,5.00,000.00,025.6,024.9,000.0,034.0,027.4,011.5,0000.0,0010.32,0003.58,0001.95
2024-04-10 17:58:00,SystemResetWarning,0830.7,5.00,000.00,025.6,024.9,000.0,034.0,027.4,011.3,0000.0,0010.48,0003.58,0001.97
2024-04-10 17:59:00,SystemResetWarning,0830.8,5.00,000.00,025.6,024.9,000.0,034.0,027.4,010.9,0000.0,0010.32,0003.63,0002.02
